Location: Bosdarros
(43.2167°N, 0.3667°W)
Time: 15:37:59
(UTC+00:00)

Cosmos 2219 - Pass Details

Date: 22 April 2021
Orbit: 834 x 859 km, 71.1° (Epoch: 12 May)

Event Time Altitude Azimuth Distance (km) Brightness Sun altitude
Rises 20:48:11 0° 212° (SSW) 3,368 6.2 -19.2°
Reaches altitude 10° 20:50:38 10° 215° (SW) 2,438 5.5 -19.5°
Maximum altitude 20:56:10 65° 297° (WNW) 917 3.6 -20.3°
Drops below altitude 10° 21:01:46 10° 19° (NNE) 2,457 5.9 -21.0°
Sets 21:04:15 0° 23° (NNE) 3,397 6.6 -21.4°
